Showing default

JINJUSAT-1B, 63210

Orbit data source: Space-Track

JINJUSAT-1B, 63210 is a South Korean payload satellite in SSO that was launched on Sat, 15 Mar 2025 UTC via an FALCON 9 launch vehicle from the Air Force Western Test Range (AFWTR). Payload-class satellites include a variety of spacecraft equipped with specific instruments for various scientific and technological missions. These include communications satellites like Starlink; space stations such as the ISS; scientific satellites like the Hubble; Earth observation satellites from companies like Planet Labs, Umbra, and HawkEye 360; GPS; miniature CubeSats for education and research; and military/defense satellites.

Loading next visibility...
Identifier
63210, 2025-052A
Orbit
SSO
Country
Flag of KRKR / SKOR
Related business
Manufacturer
KTL
Mission
Operational Civil Imaging
Bus & Motor
CUBESAT 2U, Unknown motor
Mass
2 kg wet, 2 kg dry
Launch date (UTC)
2025-03-15 (1 year ago)
Launch vehicle
FALCON 9
Launch site
Air Force Western Test Range (AFWTR)
Object type
Payload
Rocket body
Debris
Shape & HBR
Box, 0.1 m
Radar Cross Section
0.025 m², Medium (>0.1 m² and < 1m²)

Expand to show TLE details & history
Last TLE update: 6 hours ago

TLE from 6 hours ago
0 JINJUSAT-1B
1 63210U 25052A   26249.64778504  .00011037  00000-0  31862-3 0  9995
2 63210  97.3883 146.6011 0004517 126.5721 233.5939 15.35838439 82599
Epoch: 2026-09-06T15:32Z
TLE epoch observation values (Epoch: 2026-09-06T15:32:48.627Z)
Latitude
-0.00002°
Longitude
-72.3414°
Altitude
463.378 km
Speed
7.634 km/s
True Right ascension
09h 46m 24s
True Declination
0° 00' 00"
Sunlit
Object was in daylight at epoch
Visualization orbit readout
Latitude
Unknown
Longitude
Unknown
Altitude
Unknown
Speed
Unknown
Apparent Right ascension
Unknown
Apparent Declination
Unknown
Sunlit
N/A
Visualization observer readout
Local Sidereal Time
13:46:31
Azimuth
Unknown
Elevation
Unknown
Doppler factor
Unknown
Orbital elements
Apogee altitude
458.462 km
Perigee altitude
452.289 km
Semi-major axis
6,833.512 km
Eccentricity
0.00045
Inclination
97.3883°
RAAN
146.6011°
Arg. of periapsis
126.5721°
True anomaly
233.55226°
Mean anomaly
233.5939°
Eccentric anomaly
233.57308°
Mean motion
3.84218 °/min
Orbital period
93.7 mins
BSTAR
0.00031862
Loading maneuver chart data...
Computing Atmospheric mass density...
Loading historical data...
Loading historical data...
Loading historical data...
Loading historical data...
Loading historical data...
Loading historical data...
Loading historical data...

Documentation

Showing up to 5 results
|